Baltimore, MD

4:45 AM EST on December 06, 2016 (GMT -0500)
Baltimore-Washington International

Weather History for KBWI - October, 2011

Change the Weather History Date:

Thursday, October 13, 2011

  Actual Average Record
Temperature  
Mean Temperature 67 °F 57 °F  
Max Temperature 71 °F 68 °F 89 °F (1954)
Min Temperature 63 °F 46 °F 32 °F (1957)
Degree Days  
Heating Degree Days 0 9  
Month to date heating degree days 69 90  
Since 1 July heating degree days 96 143  
Cooling Degree Days 2 1  
Month to date cooling degree days 8 14  
Year to date cooling degree days 1557 1159  
Growing Degree Days 16 (Base 50)    
Moisture  
Dew Point 65 °F    
Average Humidity 95    
Maximum Humidity 100    
Minimum Humidity 90    
Precipitation  
Precipitation 0.27 in 0.11 in 1.06 in (1901)
Month to date precipitation 1.02 1.45  
Year to date precipitation 47.28 33.33  
Snow  
Snow 0.00 in 0.00 in - ()
Month to date snowfall 0.0 0.0  
Since 1 July snowfall 0.0 0.0  
Snow Depth 0.00 in    
Sea Level Pressure  
Sea Level Pressure 29.69 in    
Wind  
Wind Speed 8 mph (East)    
Max Wind Speed 13 mph    
Max Gust Speed 17 mph    
Visibility 3 miles    
Events Fog , Rain    
T = Trace of Precipitation, MM = Missing Value Source: NWS Daily Summary

Daily Weather History Graph

Daily Weather History Graph

Search for Another Location

Airport or City:

Trip Planner

Search our weather history database for the weather conditions in past years. The results will help you decide how hot, cold, wet, or windy it might be!

Date:

Astronomy

Oct. 13, 2011 Rise Set
Actual Time 7:14 AM EDT 6:31 PM EDT
Civil Twilight 6:47 AM EDT 6:58 PM EDT
Nautical Twilight 6:16 AM EDT 7:29 PM EDT
Astronomical Twilight 5:45 AM EDT 8:00 PM EDT
Moon 7:06 PM EDT (10/13) 8:42 AM EDT (10/13)
Length of Visible Light 12h 10m
Length of Day
11h 17m
Full, 98% of the Moon is Illuminated
Oct 13
Full
Oct 19
Last Quarter
Oct 26
New
Nov 2
First Quarter
Nov 10
Full

Hourly Weather History & Observations

Time (EDT) Temp. Dew Point Humidity Pressure Visibility Wind Dir Wind Speed Gust Speed Precip Events Conditions
12:34 AM 62.6 °F 62.6 °F 100% 29.83 in 1.5 mi ENE 8.1 mph - 0.01 in Rain Light Rain
12:54 AM 63.0 °F 62.1 °F 97% 29.82 in 1.2 mi ENE 10.4 mph - 0.02 in Rain Light Rain
1:54 AM 63.0 °F 62.1 °F 97% 29.81 in 1.2 mi ENE 10.4 mph - 0.01 in   Light Drizzle
2:54 AM 63.0 °F 62.1 °F 97% 29.79 in 1.0 mi ENE 10.4 mph - 0.00 in   Light Drizzle
3:54 AM 63.0 °F 62.1 °F 97% 29.78 in 1.0 mi ENE 11.5 mph - 0.02 in Rain Light Rain
4:54 AM 63.0 °F 62.1 °F 97% 29.75 in 1.2 mi ENE 9.2 mph - 0.00 in   Overcast
5:31 AM 62.6 °F 62.6 °F 100% 29.77 in 0.8 mi NE 11.5 mph - N/A Rain Light Rain
5:54 AM 63.0 °F 62.1 °F 97% 29.76 in 0.8 mi NE 8.1 mph - 0.00 in   Light Drizzle
6:21 AM 62.6 °F 62.6 °F 100% 29.78 in 1.0 mi ENE 8.1 mph - 0.01 in   Light Drizzle
6:54 AM 63.0 °F 62.1 °F 97% 29.76 in 1.2 mi ENE 9.2 mph - 0.02 in   Light Drizzle
7:25 AM 62.6 °F 62.6 °F 100% 29.76 in 0.8 mi ENE 10.4 mph - 0.00 in   Light Drizzle
7:37 AM 62.6 °F 62.6 °F 100% 29.75 in 1.0 mi ENE 10.4 mph - 0.00 in   Light Drizzle
7:51 AM 62.6 °F 62.6 °F 100% 29.76 in 0.8 mi East 8.1 mph - 0.00 in   Light Drizzle
7:54 AM 63.0 °F 63.0 °F 100% 29.76 in 0.8 mi East 10.4 mph - 0.00 in   Light Drizzle
8:54 AM 63.0 °F 63.0 °F 100% 29.77 in 0.5 mi East 5.8 mph - 0.06 in Fog , Rain Light Rain
9:14 AM 64.4 °F 62.6 °F 94% 29.76 in 0.8 mi East 9.2 mph - N/A Rain Light Rain
9:54 AM 64.4 °F 62.6 °F 94% 29.75 in 0.8 mi ENE 10.4 mph - N/A Rain Light Rain
10:54 AM 64.9 °F 64.0 °F 97% 29.73 in 0.8 mi ENE 8.1 mph - 0.03 in Rain Light Rain
11:54 AM 66.0 °F 64.9 °F 96% 29.72 in 0.8 mi ENE 9.2 mph - 0.04 in Rain Light Rain
12:26 PM 66.2 °F 64.4 °F 94% 29.71 in 1.0 mi East 9.2 mph - 0.00 in Rain Light Rain
12:54 PM 66.0 °F 66.0 °F 100% 29.71 in 1.5 mi East 8.1 mph - 0.01 in Rain Light Rain
1:04 PM 66.2 °F 66.2 °F 100% 29.70 in 0.8 mi ENE 8.1 mph - 0.00 in Rain Light Rain
1:54 PM 68.0 °F 66.9 °F 96% 29.67 in 0.8 mi ESE 9.2 mph - 0.05 in Rain Light Rain
2:03 PM 68.0 °F 66.2 °F 94% 29.67 in 1.0 mi ESE 9.2 mph - 0.00 in   Light Drizzle
3:26 PM 68.0 °F 68.0 °F 100% 29.64 in 2.0 mi ESE 8.1 mph - 0.00 in   Light Drizzle
3:54 PM 69.1 °F 68.0 °F 96% 29.62 in 2.0 mi East 8.1 mph - 0.00 in   Overcast
4:34 PM 69.8 °F 68.0 °F 94% 29.62 in 3.0 mi ESE 6.9 mph - N/A   Overcast
4:54 PM 70.0 °F 69.1 °F 97% 29.62 in 3.0 mi ESE 9.2 mph - N/A   Overcast
5:54 PM 70.0 °F 69.1 °F 97% 29.60 in 3.0 mi ESE 9.2 mph - N/A   Overcast
6:26 PM 69.8 °F 68.0 °F 94% 29.60 in 3.0 mi East 5.8 mph - N/A   Overcast
6:36 PM 69.8 °F 69.8 °F 100% 29.60 in 4.0 mi East 5.8 mph - N/A   Overcast
6:54 PM 69.8 °F 69.8 °F 100% 29.61 in 4.0 mi ENE 5.8 mph - N/A   Overcast
7:54 PM 70.0 °F 68.0 °F 93% 29.61 in 4.0 mi East 6.9 mph - N/A   Overcast
8:35 PM 69.8 °F 68.0 °F 94% 29.60 in 6.0 mi SE 5.8 mph - N/A   Overcast
8:54 PM 70.0 °F 68.0 °F 93% 29.59 in 6.0 mi ESE 6.9 mph - N/A   Mostly Cloudy
9:54 PM 71.1 °F 68.0 °F 90% 29.58 in 10.0 mi SE 8.1 mph - N/A   Overcast
10:12 PM 69.8 °F 68.0 °F 94% 29.59 in 10.0 mi Variable 6.9 mph - N/A   Overcast
10:23 PM 69.8 °F 68.0 °F 94% 29.58 in 10.0 mi SE 5.8 mph - N/A   Overcast
10:54 PM 71.1 °F 68.0 °F 90% 29.57 in 10.0 mi SE 6.9 mph 16.1 mph N/A   Mostly Cloudy
11:08 PM 71.6 °F 68.0 °F 88% 29.57 in 10.0 mi SSE 8.1 mph - N/A   Overcast
11:54 PM 71.1 °F 68.0 °F 90% 29.57 in 10.0 mi SSE 9.2 mph - N/A   Overcast
11:58 PM 71.6 °F 68.0 °F 88% 29.57 in 10.0 mi South 9.2 mph - N/A   Overcast